VA3XLC Weather Reports


time (UTC)temp
C
wind
direction
speed
KPH
gust
KPH
rain 1hr
cm
rain 24hr
cm
rain mn
cm
humidity
%
barometer
mb
20260507183107 10 253 3.2 4.8 0.00 0.00 0.00 43 977.8
20260507182607 10 337 4.8 8.0 0.00 0.00 0.00 43 977.8
20260507182107 10 314 9.7 16.1 0.00 0.00 0.00 43 977.8
20260507181044 11 347 8.0 12.9 0.00 0.00 0.00 43 977.7
20260507180543 11 350 9.7 12.9 0.00 0.00 0.00 43 977.8
20260507180043 11 0 8.0 16.1 0.00 0.00 0.00 44 977.8
20260507175543 11 8 8.0 14.5 0.00 0.00 0.00 45 977.8
20260507175043 11 353 9.7 14.5 0.00 0.00 0.00 44 978.0
20260507174543 10 349 11.3 16.1 0.00 0.00 0.00 43 978.0
20260507174043 10 324 11.3 14.5 0.00 0.00 0.00 43 978.1
20260507173542 10 349 14.5 19.3 0.00 0.00 0.00 42 978.2
20260507173042 10 330 6.4 9.7 0.00 0.00 0.00 44 978.2
20260507172542 10 30 4.8 8.0 0.00 0.00 0.00 43 978.2
20260507172042 10 353 4.8 9.7 0.00 0.00 0.00 44 978.4
20260507171542 10 333 8.0 14.5 0.00 0.00 0.00 45 978.4
20260507171042 10 339 11.3 16.1 0.00 0.00 0.00 45 978.4
20260507170541 10 342 8.0 12.9 0.00 0.00 0.00 45 978.4
20260507170041 10 340 12.9 16.1 0.00 0.00 0.00 44 978.5
20260507165541 10 346 11.3 16.1 0.00 0.00 0.00 45 978.5
20260507165041 10 332 9.7 16.1 0.00 0.00 0.00 46 978.5
20260507164541 10 331 9.7 14.5 0.00 0.00 0.00 44 978.7
20260507164040 10 341 3.2 8.0 0.00 0.00 0.00 47 978.7
20260507163540 10 351 6.4 11.3 0.00 0.00 0.00 45 978.8
20260507163040 10 332 8.0 14.5 0.00 0.00 0.00 46 978.8
20260507162540 10 255 6.4 11.3 0.00 0.00 0.00 45 978.9
20260507161518 10 310 6.4 9.7 0.00 0.00 0.00 46 978.9
20260507161018 10 326 6.4 9.7 0.00 0.00 0.00 46 978.9
20260507160517 10 260 6.4 11.3 0.00 0.00 0.00 46 978.9
20260507160017 10 255 11.3 12.9 0.00 0.00 0.00 45 979.0
20260507155517 10 279 9.7 11.3 0.00 0.00 0.00 44 979.0
20260507155017 10 312 8.0 12.9 0.00 0.00 0.00 45 979.0
20260507154517 10 295 9.7 14.5 0.00 0.00 0.00 44 979.0
20260507154016 10 281 9.7 16.1 0.00 0.00 0.00 44 979.0
20260507153516 10 261 9.7 12.9 0.00 0.00 0.00 45 979.0
20260507153016 10 343 8.0 11.3 0.00 0.00 0.00 44 979.0
20260507152516 10 279 9.7 19.3 0.00 0.00 0.00 45 979.0
20260507152016 10 315 9.7 12.9 0.00 0.00 0.00 46 979.0
20260507150955 10 309 4.8 8.0 0.00 0.00 0.00 48 979.0
20260507150454 9 299 9.7 12.9 0.00 0.00 0.00 49 979.1
20260507145954 10 265 6.4 11.3 0.00 0.00 0.00 47 979.1
20260507145454 9 237 3.2 6.4 0.00 0.00 0.00 48 979.1
20260507144953 9 260 6.4 11.3 0.00 0.00 0.00 49 979.1
20260507144453 9 326 9.7 14.5 0.00 0.00 0.00 47 979.1
20260507143431 8 28 4.8 9.7 0.00 0.00 0.00 53 979.3
20260507142931 8 340 6.4 11.3 0.00 0.00 0.00 55 979.3
20260507142431 8 14 1.6 4.8 0.00 0.00 0.00 54 979.4
20260507141931 8 304 8.0 12.9 0.00 0.00 0.00 55 979.4
20260507141431 8 285 4.8 6.4 0.00 0.00 0.00 58 979.5
20260507140931 8 22 4.8 8.0 0.00 0.00 0.00 59 979.5
20260507135909 8 20 8.0 11.3 0.00 0.00 0.00 58 979.6
20260507135409 8 341 6.4 9.7 0.00 0.00 0.00 58 979.6
20260507134909 8 305 6.4 11.3 0.00 0.00 0.00 59 979.6
20260507134408 7 353 6.4 8.0 0.00 0.00 0.00 60 979.6
20260507133908 7 347 4.8 8.0 0.00 0.00 0.00 60 979.7
20260507132325 7 259 8.0 9.7 0.00 0.00 0.00 64 979.8
20260507131825 7 240 3.2 6.4 0.00 0.00 0.00 64 979.8
20260507131324 6 191 4.8 6.4 0.00 0.00 0.00 65 979.8
20260507130823 6 263 4.8 4.8 0.00 0.00 0.00 66 979.8
20260507130323 6 235 4.8 4.8 0.00 0.00 0.00 66 979.9
20260507125823 6 240 3.2 4.8 0.00 0.00 0.00 67 979.9
20260507125323 5 230 3.2 3.2 0.00 0.00 0.00 67 979.8
20260507124823 5 257 3.2 4.8 0.00 0.00 0.00 68 979.8
20260507124322 5 188 1.6 3.2 0.00 0.00 0.00 69 979.9
20260507123822 5 249 3.2 4.8 0.00 0.00 0.00 69 979.9
20260507123322 5 236 1.6 3.2 0.00 0.00 0.00 70 979.8
20260507122822 4 215 1.6 3.2 0.00 0.00 0.00 70 979.8
20260507122322 4 195 3.2 4.8 0.00 0.00 0.00 70 979.9
20260507121823 4 0 0.0 0.0 0.00 0.00 0.00 72 979.9
20260507121322 4 144 4.8 6.4 0.00 0.00 0.00 71 979.9
20260507120822 3 197 4.8 4.8 0.00 0.00 0.00 71 979.9
20260507115800 3 208 3.2 4.8 0.00 0.00 0.00 71 979.9
20260507115300 3 177 3.2 4.8 0.00 0.00 0.00 72 979.8
20260507114800 3 184 3.2 4.8 0.00 0.00 0.00 71 979.7
20260507113739 3 151 4.8 6.4 0.00 0.00 0.00 72 979.7
20260507113239 3 142 3.2 4.8 0.00 0.00 0.00 72 979.6
20260507112739 3 150 1.6 3.2 0.00 0.00 0.00 73 979.6
20260507112238 3 191 3.2 4.8 0.00 0.00 0.00 72 979.6
20260507111217 3 193 3.2 4.8 0.00 0.00 0.00 72 979.5
20260507110717 2 175 4.8 6.4 0.00 0.00 0.00 72 979.5
20260507110217 2 177 3.2 4.8 0.00 0.00 0.00 72 979.5
20260507105716 2 183 4.8 6.4 0.00 0.00 0.00 73 979.5
20260507105216 1 186 4.8 6.4 0.00 0.00 0.00 74 979.4
20260507104716 1 203 3.2 3.2 0.00 0.00 0.00 75 979.5
20260507103655 1 190 3.2 4.8 0.00 0.00 0.00 77 979.5
20260507103155 1 215 1.6 3.2 0.00 0.00 0.00 77 979.5
20260507102133 1 214 1.6 3.2 0.00 0.00 0.00 76 979.5
20260507101633 1 171 1.6 3.2 0.00 0.00 0.00 75 979.5
20260507100612 2 249 3.2 4.8 0.00 0.00 0.00 74 979.4
20260507100112 2 141 4.8 6.4 0.00 0.00 0.00 74 979.4
20260507095051 2 225 1.6 3.2 0.00 0.00 0.00 74 979.4
20260507094550 2 190 1.6 4.8 0.00 0.00 0.00 74 979.4
20260507094050 2 0 0.0 0.0 0.00 0.00 0.00 74 979.4
20260507093550 2 140 1.6 1.6 0.00 0.00 0.00 75 979.4
20260507093049 2 188 1.6 3.2 0.00 0.00 0.00 75 979.5
20260507092549 2 183 1.6 4.8 0.00 0.00 0.00 75 979.5
20260507092048 2 216 3.2 4.8 0.00 0.00 0.00 75 979.5
20260507091548 2 216 3.2 3.2 0.00 0.00 0.00 74 979.5
20260507091048 2 211 1.6 3.2 0.00 0.00 0.00 75 979.5
20260507090548 2 0 0.0 0.0 0.00 0.00 0.00 74 979.6
20260507085527 2 154 1.6 1.6 0.00 0.00 0.00 73 979.7
20260507085027 3 197 3.2 4.8 0.00 0.00 0.00 73 979.8
20260507084526 3 164 1.6 3.2 0.00 0.00 0.00 73 979.7
20260507084026 3 0 0.0 0.0 0.00 0.00 0.00 73 979.7
20260507083005 3 42 1.6 3.2 0.00 0.00 0.00 73 979.8
20260507081944 3 0 0.0 0.0 0.00 0.00 0.00 73 979.6
20260507081444 3 120 0.0 1.6 0.00 0.00 0.00 73 979.6
20260507080943 3 154 1.6 3.2 0.00 0.00 0.00 74 979.6
20260507080443 3 115 1.6 4.8 0.00 0.00 0.00 75 979.8
20260507075943 3 231 1.6 1.6 0.00 0.00 0.00 75 979.7
20260507074400 4 0 0.0 0.0 0.00 0.00 0.00 73 979.7
20260507073900 5 0 0.0 0.0 0.00 0.00 0.00 73 979.7
20260507073400 5 0 0.0 0.0 0.00 0.00 0.00 73 979.7
20260507072859 5 0 0.0 0.0 0.00 0.00 0.00 72 979.7
20260507072359 5 286 1.6 3.2 0.00 0.00 0.00 72 979.7
20260507071859 5 0 0.0 0.0 0.00 0.00 0.00 71 979.7
20260507071358 5 333 3.2 6.4 0.00 0.00 0.00 71 979.8
20260507070858 5 325 3.2 4.8 0.00 0.00 0.00 71 979.7
20260507070358 5 330 3.2 3.2 0.00 0.00 0.00 71 979.7
20260507065858 5 0 0.0 0.0 0.00 0.00 0.00 71 979.8
20260507065358 5 338 3.2 4.8 0.00 0.00 0.00 70 979.8
20260507064856 5 335 3.2 4.8 0.00 0.00 0.00 70 979.8
20260507064356 5 342 3.2 6.4 0.00 0.00 0.00 70 979.7
20260507063855 5 352 4.8 8.0 0.00 0.00 0.00 70 979.7
20260507063355 5 0 0.0 0.0 0.00 0.00 0.00 70 979.7
20260507062855 5 342 4.8 8.0 0.00 0.00 0.00 69 979.7
20260507061834 5 343 3.2 4.8 0.00 0.00 0.00 70 979.5
20260507061334 6 288 3.2 3.2 0.00 0.00 0.00 70 979.5
20260507060833 6 270 3.2 3.2 0.00 0.00 0.00 70 979.5
20260507060333 6 256 3.2 4.8 0.00 0.00 0.00 69 979.4
20260507055311 6 248 4.8 8.0 0.00 0.00 0.00 69 979.4
20260507054811 5 262 8.0 11.3 0.00 0.00 0.00 70 979.5
20260507054311 5 260 3.2 6.4 0.00 0.00 0.00 70 979.6
20260507053811 5 234 1.6 4.8 0.00 0.00 0.00 70 979.6
20260507053311 6 245 4.8 9.7 0.00 0.00 0.00 69 979.6
20260507052811 5 241 1.6 3.2 0.00 0.00 0.00 69 979.7
20260507052310 5 236 4.8 8.0 0.00 0.00 0.00 69 979.8
20260507051810 5 191 3.2 6.4 0.00 0.00 0.00 69 979.8
20260507050750 5 254 3.2 4.8 0.00 0.00 0.00 67 979.9
20260507050248 5 209 1.6 4.8 0.00 0.00 0.00 67 979.9
20260507045748 5 231 4.8 9.7 0.00 0.00 0.00 66 979.9
20260507045249 6 194 1.6 1.6 0.00 0.00 0.00 66 979.9
20260507044748 6 240 3.2 8.0 0.00 0.00 0.00 65 980.0
20260507044248 6 213 1.6 3.2 0.00 0.00 0.00 64 980.0
20260507043747 6 246 4.8 8.0 0.00 0.00 0.00 63 980.0
20260507043247 6 215 3.2 3.2 0.00 0.00 0.00 62 980.1
20260507042225 5 237 3.2 3.2 0.00 0.00 0.00 63 980.1
20260507041724 5 228 3.2 4.8 0.00 0.00 0.00 64 980.2
20260507041224 5 201 1.6 3.2 0.00 0.00 0.00 66 980.1
20260507040202 5 208 1.6 3.2 0.00 0.00 0.00 65 980.1
20260507035702 5 233 1.6 4.8 0.00 0.00 0.00 65 980.1
20260507035201 5 0 0.0 0.0 0.00 0.00 0.00 67 980.2
20260507034701 5 221 1.6 3.2 0.00 0.00 0.00 68 980.2
20260507033639 5 0 0.0 0.0 0.00 0.00 0.00 66 980.1
20260507033139 5 220 1.6 3.2 0.00 0.00 0.00 65 980.2
20260507032116 5 0 0.0 0.0 0.00 0.00 0.00 68 980.2
20260507031615 5 0 0.0 0.0 0.00 0.00 0.00 67 980.3
20260507031115 5 0 0.0 0.0 0.00 0.00 0.00 68 980.3
20260507030054 5 0 0.0 0.0 0.00 0.00 0.00 67 980.4
20260507025554 5 0 0.0 0.0 0.00 0.00 0.00 67 980.3
20260507025053 5 0 0.0 0.0 0.00 0.00 0.00 67 980.3
20260507024030 5 0 0.0 0.0 0.00 0.00 0.00 65 980.2
20260507023530 5 193 1.6 3.2 0.00 0.00 0.00 64 980.2
20260507022507 5 0 0.0 0.0 0.00 0.00 0.00 65 980.3
20260507021445 5 0 0.0 0.0 0.00 0.00 0.00 66 980.3
20260507020945 5 0 0.0 0.0 0.00 0.00 0.00 63 980.2
20260507015402 5 0 0.0 0.0 0.00 0.00 0.00 64 980.3
20260507014902 5 0 0.0 0.0 0.00 0.00 0.00 63 980.2
20260507013840 5 0 0.0 0.0 0.00 0.00 0.00 59 980.2
20260507012819 5 215 0.0 1.6 0.00 0.00 0.00 60 980.2
20260507012319 6 0 0.0 0.0 0.00 0.00 0.00 59 980.2
20260507011818 6 0 0.0 0.0 0.00 0.00 0.00 60 980.2
20260507011317 6 0 0.0 0.0 0.00 0.00 0.00 59 980.3
20260507010256 6 255 1.6 3.2 0.00 0.00 0.00 55 980.4
20260507005756 6 229 1.6 3.2 0.00 0.00 0.00 53 980.3
20260507005256 6 219 3.2 3.2 0.00 0.00 0.00 52 980.3
20260507004755 6 238 1.6 3.2 0.00 0.00 0.00 51 980.2
20260507004255 7 246 3.2 3.2 0.00 0.00 0.00 50 980.3
20260507003755 7 269 1.6 3.2 0.00 0.00 0.00 50 980.2
20260507003254 7 262 3.2 3.2 0.00 0.00 0.00 49 980.1
20260507002754 7 258 1.6 3.2 0.00 0.00 0.00 48 980.1
20260507002254 7 275 1.6 1.6 0.00 0.00 0.00 47 980.0
20260507001754 7 310 3.2 4.8 0.00 0.00 0.00 47 980.0
20260507001254 7 302 3.2 4.8 0.00 0.00 0.00 45 979.9
20260507000754 8 325 3.2 4.8 0.00 0.00 0.00 44 979.8
20260507000253 8 332 6.4 8.0 0.00 0.00 0.00 43 979.7
20260506235231 8 338 4.8 8.0 0.00 0.00 0.00 43 979.7
20260506233649 8 326 6.4 9.7 0.00 0.00 0.00 42 979.8
20260506233148 8 334 4.8 8.0 0.00 0.00 0.00 42 979.8
20260506232647 8 333 9.7 11.3 0.00 0.00 0.00 41 979.7
20260506231626 8 10 6.4 14.5 0.00 0.00 0.00 41 979.8
20260506225522 9 332 11.3 14.5 0.00 0.00 0.00 40 979.8
20260506225021 9 352 11.3 12.9 0.00 0.00 0.00 38 979.8
20260506224521 9 317 6.4 12.9 0.00 0.00 0.00 40 979.9
20260506224021 8 340 8.0 11.3 0.00 0.00 0.00 40 979.9
20260506223520 8 317 8.0 12.9 0.00 0.00 0.00 40 979.9
20260506222459 8 352 8.0 11.3 0.00 0.00 0.00 40 979.9
20260506221959 8 332 4.8 9.7 0.00 0.00 0.00 41 979.9
20260506221458 8 340 12.9 16.1 0.00 0.00 0.00 40 979.9
20260506220958 8 336 11.3 20.9 0.00 0.00 0.00 40 979.8
20260506220458 9 337 11.3 12.9 0.00 0.00 0.00 38 979.8
20260506215958 9 309 11.3 14.5 0.00 0.00 0.00 38 979.8
20260506215457 9 352 6.4 12.9 0.00 0.00 0.00 39 979.7
20260506214957 8 345 11.3 17.7 0.00 0.00 0.00 38 979.6
20260506214457 8 3 6.4 12.9 0.00 0.00 0.00 39 979.5
20260506213957 9 331 6.4 11.3 0.00 0.00 0.00 38 979.5
20260506212935 8 331 8.0 14.5 0.00 0.00 0.00 38 979.5
20260506212435 9 339 11.3 17.7 0.00 0.00 0.00 37 979.5
20260506211414 8 9 8.0 14.5 0.00 0.00 0.00 40 979.5
20260506210913 8 350 9.7 17.7 0.00 0.00 0.00 40 979.5
20260506210412 8 11 8.0 14.5 0.00 0.00 0.00 43 979.3
20260506205912 8 359 9.7 12.9 0.00 0.00 0.00 43 979.3
20260506204850 8 340 9.7 14.5 0.00 0.00 0.00 43 979.2
20260506204350 8 349 14.5 19.3 0.00 0.00 0.00 43 979.2
20260506203849 8 341 12.9 16.1 0.00 0.00 0.00 45 979.2
20260506203349 8 338 12.9 19.3 0.00 0.00 0.00 46 979.2
20260506202849 8 341 11.3 17.7 0.00 0.00 0.00 47 979.3
20260506202348 8 323 11.3 14.5 0.00 0.00 0.00 47 979.3
20260506201326 8 334 11.3 14.5 0.00 0.00 0.00 48 979.3
20260506200826 8 350 8.0 14.5 0.00 0.00 0.00 49 979.3
20260506195805 8 347 12.9 16.1 0.00 0.00 0.00 48 979.3
20260506195306 8 348 8.0 14.5 0.00 0.00 0.00 49 979.3
20260506194804 8 351 8.0 12.9 0.00 0.00 0.00 49 979.2
20260506194304 8 336 6.4 9.7 0.00 0.00 0.00 49 979.2
20260506193803 8 2 8.0 14.5 0.00 0.00 0.00 50 979.2
20260506193303 8 317 14.5 22.5 0.00 0.00 0.00 48 979.1
20260506192803 8 341 16.1 20.9 0.00 0.00 0.00 47 979.2
20260506192305 8 353 9.7 12.9 0.00 0.00 0.00 49 979.1
20260506191803 8 343 12.9 17.7 0.00 0.00 0.00 49 979.1
20260506191302 8 348 11.3 16.1 0.00 0.00 0.00 50 979.1
20260506190801 8 355 9.7 14.5 0.00 0.00 0.00 50 979.3
20260506190300 8 338 14.5 17.7 0.00 0.00 0.00 49 979.3
20260506185800 8 333 12.9 19.3 0.00 0.00 0.00 50 979.2
20260506185300 8 345 11.3 19.3 0.00 0.00 0.00 50 979.3
20260506184800 8 347 14.5 19.3 0.00 0.00 0.00 50 979.3
20260506184259 8 340 12.9 19.3 0.00 0.00 0.00 50 979.2
20260506183759 8 343 14.5 24.1 0.00 0.00 0.00 51 979.0